Regional Weather Roundup
Issued by NWS Newport/Morehead, NC

Current Version | Previous Version | Graphics & Text | Print | Product List | Glossary On
Versions: 1 2 3 4 5 6 7 8 9 10 11 12 13 14 15 16 17 18 19 20 21 22 23 24 25 26 27 28 29 30 31 32 33 34 35 36 37 38 39 40 41 42 43 44 45 46 47 48 49 50
000 ASUS42 KMHX 301913 RWRMHX WEATHER ROUNDUP FOR EASTERN NORTH CAROLINA NATIONAL WEATHER SERVICE NEWPORT/MOREHEAD CITY NC 300 PM EDT THU MAR 30 2017 NOTE: "FAIR" INDICATES FEW OR NO CLOUDS BELOW 12,000 FEET WITH NO SIGNIFICANT WEATHER AND/OR OBSTRUCTIONS TO VISIBILITY NCZ015>017-031-032-045>047-102-103-302000- NORTH COAST CITY SKY/WX TMP DP RH WIND PRES REMARKS EDENTON CLOUDY 60 46 59 E9 30.14F ELIZABETH CITY CLOUDY 60 44 55 SE7 30.15F KITTY HAWK NOT AVBL MANTEO CLOUDY 55 43 64 E14 30.16F $$ NCZ045>047-081-094-103-104-302000- CENTRAL COAST CITY SKY/WX TMP DP RH WIND PRES REMARKS FRISCO SUNNY 66 48 52 NE10G17 30.13F $$ NCZ095-097-098-100-101-302000- SOUTHERN COAST CITY SKY/WX TMP DP RH WIND PRES REMARKS BEAUFORT CLOUDY 67 56 67 E8 30.11F CEDAR ISLAND NOT AVBL JACKSONVILLE SUNNY 70 54 56 SE15 30.08F PINEY ISLAND CLOUDY N/A N/A N/A NE10 30.13F WILMINGTON SUNNY 69 54 58 E15 30.09F $$ NCZ011>013-027>030-043-044-078>080-089-090>093-098-302000- COASTAL PLAIN CITY SKY/WX TMP DP RH WIND PRES REMARKS AHOSKIE N/A 61 40 46 SE6 30.12F CLINTON MOSUNNY 70 53 55 E5 30.07F ELIZABETHTOWN SUNNY 74 54 48 E6 30.03F GOLDSBORO PTSUNNY 65 47 53 SE10 30.07F GREENVILLE CLOUDY 68 43 40 SE7 30.11F HAVELOCK CLOUDY 65 49 56 E12 30.13F KENANSVILLE CLOUDY 70 50 49 NE7 30.08F KINSTON CLOUDY 66 48 52 SE10 30.10F NEW BERN CLOUDY 64 48 56 SE9 30.12F RICHLANDS MOSUNNY 71 51 49 SE13G21 30.08F ROCKY MOUNT CLOUDY 65 43 44 VRB6 30.09F WASHINGTON MOSUNNY 67 43 41 S8 30.11F WHITEVILLE PTSUNNY 76 53 45 SE8 30.03F $$ AMZ130-135-150-152-154-156-158-170-250-252-270-ANZ085-086-088-633-658-670-302000- MARINE OBSERVATIONS STATION/POSITION TIME TEMP WIND PRES WAVE SWELL AIR SEA DIR/SP/G HT/PER HT/PER (UTC) (F) (DEG/KT/KT) (MB) (FT/S) (FT/S) CHESAPEAKE LIGHT NOT AVBL 64 E VA BEACH 1850 50 51 80/ 12/ 14 1021.4 5/10 5/10 DUCK 1848 52 51 70/ 11/ 12 1021.0 2 E DUCK 1900 51 N/A 4/ 8 2/11 OREGON INLET 1842 52 54 40/ 11/ 15 1020.9 13E OREGON INLT 1848 49 N/A 5/ 9 5/ 9 HATTERAS CG 1848 59 59 40/ 8/ 10 1020.1 DIAMOND BUOY 1850 67 77 140/ 8/ 12 1019.9 6/ 8 5/ 8 CAPE LOOKOUT 1900 62 40/ 14/ 16 1019.5 BEAUFORT LAB 1848 64 62 100/ 8/ 11 1019.1 30 SE NEW RVR IN 1808 62 60/ 17/ 23 1020.0 30 SE NEW RVR IN 1843 64 N/A 5/ 5 2/11 27 SE WRIGHTSVLE 1808 65 73 70/ 16/ 23 1019.2 5 SE WRIGHTSVLE 1808 60 59 80/ 14/ 25 1019.7 225 S CAPE HAT 1850 67 72 70/ 12/ 16 1019.5 6/10 5/10 41 SE CHARLESTON 1850 69 72 150/ 14/ 16 1016.6 5/10 3/10 $$

USA.gov is the U.S. government's official web portal to all federal, state and local government web resources and services.